Time,TemperatureF,DewpointF,PressureIn,WindDirection,WindDirectionDegrees,WindSpeedMPH,WindSpeedGustMPH,Humidity,HourlyPrecipIn,Conditions,Clouds,dailyrainin,SolarRadiationWatts/m^2,SoftwareType,DateUTC
2013-10-18 00:02:00,29.0,14.0,-100.00,WNW,300,4.0,6.0,54,0.00,,,0.00,0.000000,,2013-10-18 06:02:00,
2013-10-18 00:12:00,29.0,14.0,-100.00,WNW,300,4.0,6.0,54,0.00,,,0.00,0.000000,,2013-10-18 06:12:00,
2013-10-18 00:21:00,29.0,14.0,-100.00,WNW,300,4.0,6.0,54,0.00,,,0.00,0.000000,,2013-10-18 06:21:00,
2013-10-18 00:52:00,30.0,14.0,-100.00,NW,326,5.0,9.0,51,0.00,,,0.00,0.000000,,2013-10-18 06:52:00,
2013-10-18 01:02:00,30.0,14.0,-100.00,NW,326,5.0,9.0,51,0.00,,,0.00,0.000000,,2013-10-18 07:02:00,
2013-10-18 01:11:00,30.0,14.0,-100.00,NW,326,5.0,9.0,51,0.00,,,0.00,0.000000,,2013-10-18 07:11:00,
2013-10-18 01:21:00,30.0,14.0,-100.00,NW,326,5.0,9.0,51,0.00,,,0.00,0.000000,,2013-10-18 07:21:00,
2013-10-18 01:52:00,27.0,13.0,-100.00,NW,325,3.0,7.0,56,0.00,,,0.00,0.000000,,2013-10-18 07:52:00,
2013-10-18 02:02:00,27.0,13.0,-100.00,NW,325,3.0,7.0,56,0.00,,,0.00,0.000000,,2013-10-18 08:02:00,
2013-10-18 02:11:00,27.0,13.0,-100.00,NW,325,3.0,7.0,56,0.00,,,0.00,0.000000,,2013-10-18 08:11:00,
2013-10-18 02:22:00,27.0,13.0,-100.00,NW,325,3.0,7.0,56,0.00,,,0.00,0.000000,,2013-10-18 08:22:00,
2013-10-18 02:52:00,29.0,17.0,-100.00,SSE,156,2.0,6.0,61,0.00,,,0.00,0.000000,,2013-10-18 08:52:00,
2013-10-18 03:02:00,29.0,17.0,-100.00,SSE,156,2.0,6.0,61,0.00,,,0.00,0.000000,,2013-10-18 09:02:00,
2013-10-18 03:12:00,29.0,17.0,-100.00,SSE,156,2.0,6.0,61,0.00,,,0.00,0.000000,,2013-10-18 09:12:00,
2013-10-18 03:21:00,29.0,17.0,-100.00,SSE,156,2.0,6.0,61,0.00,,,0.00,0.000000,,2013-10-18 09:21:00,
2013-10-18 03:23:00,28.0,17.0,-100.00,WNW,298,3.0,5.0,63,0.00,,,0.00,0.000000,,2013-10-18 09:23:00,
2013-10-18 03:53:00,28.0,17.0,-100.00,WNW,298,3.0,5.0,63,0.00,,,0.00,0.000000,,2013-10-18 09:53:00,
2013-10-18 04:03:00,28.0,17.0,-100.00,WNW,298,3.0,5.0,63,0.00,,,0.00,0.000000,,2013-10-18 10:03:00,
2013-10-18 04:12:00,28.0,17.0,-100.00,WNW,298,3.0,5.0,63,0.00,,,0.00,0.000000,,2013-10-18 10:12:00,
2013-10-18 04:53:00,28.0,20.0,-100.00,WSW,245,0.0,5.0,71,0.00,,,0.00,0.000000,,2013-10-18 10:53:00,
2013-10-18 05:03:00,28.0,20.0,-100.00,WSW,245,0.0,5.0,71,0.00,,,0.00,0.000000,,2013-10-18 11:03:00,
2013-10-18 05:12:00,28.0,20.0,-100.00,WSW,245,0.0,5.0,71,0.00,,,0.00,0.000000,,2013-10-18 11:12:00,
2013-10-18 05:22:00,28.0,20.0,-100.00,WSW,245,0.0,5.0,71,0.00,,,0.00,0.000000,,2013-10-18 11:22:00,
2013-10-18 05:52:00,26.0,22.0,-100.00,SW,219,1.0,3.0,83,0.00,,,0.00,0.000000,,2013-10-18 11:52:00,
2013-10-18 06:02:00,26.0,22.0,-100.00,SW,219,1.0,3.0,83,0.00,,,0.00,0.000000,,2013-10-18 12:02:00,
2013-10-18 06:12:00,26.0,22.0,-100.00,SW,219,1.0,3.0,83,0.00,,,0.00,0.000000,,2013-10-18 12:12:00,
2013-10-18 06:21:00,26.0,22.0,-100.00,SW,219,1.0,3.0,83,0.00,,,0.00,0.000000,,2013-10-18 12:21:00,
2013-10-18 06:52:00,25.0,21.0,-100.00,WSW,243,2.0,5.0,85,0.00,,,0.00,0.000000,,2013-10-18 12:52:00,
2013-10-18 07:01:00,25.0,21.0,-100.00,WSW,243,2.0,5.0,85,0.00,,,0.00,0.000000,,2013-10-18 13:01:00,
2013-10-18 07:11:00,25.0,21.0,-100.00,WSW,243,2.0,5.0,85,0.00,,,0.00,0.000000,,2013-10-18 13:11:00,
2013-10-18 07:22:00,25.0,21.0,-100.00,WSW,243,2.0,5.0,85,0.00,,,0.00,0.000000,,2013-10-18 13:22:00,
2013-10-18 07:52:00,24.0,19.0,-100.00,WNW,282,2.0,7.0,80,0.00,,,0.00,1.000000,,2013-10-18 13:52:00,
2013-10-18 08:02:00,24.0,19.0,-100.00,WNW,282,2.0,7.0,80,0.00,,,0.00,1.000000,,2013-10-18 14:02:00,
2013-10-18 08:11:00,24.0,19.0,-100.00,WNW,282,2.0,7.0,80,0.00,,,0.00,1.000000,,2013-10-18 14:11:00,
2013-10-18 08:21:00,24.0,19.0,-100.00,WNW,282,2.0,7.0,80,0.00,,,0.00,1.000000,,2013-10-18 14:21:00,
2013-10-18 08:52:00,26.0,18.0,-100.00,West,280,2.0,9.0,70,0.00,,,0.00,25.000000,,2013-10-18 14:52:00,
2013-10-18 09:02:00,26.0,18.0,-100.00,West,280,2.0,9.0,70,0.00,,,0.00,25.000000,,2013-10-18 15:02:00,
2013-10-18 09:11:00,26.0,18.0,-100.00,West,280,2.0,9.0,70,0.00,,,0.00,25.000000,,2013-10-18 15:11:00,
2013-10-18 09:22:00,26.0,18.0,-100.00,West,280,2.0,9.0,70,0.00,,,0.00,25.000000,,2013-10-18 15:22:00,
2013-10-18 09:23:00,32.0,17.0,-100.00,North,4,10.0,21.0,53,0.00,,,0.00,378.000000,,2013-10-18 15:23:00,
2013-10-18 09:54:00,32.0,17.0,-100.00,North,4,10.0,21.0,53,0.00,,,0.00,378.000000,,2013-10-18 15:54:00,
2013-10-18 10:04:00,32.0,17.0,-100.00,North,4,10.0,21.0,53,0.00,,,0.00,378.000000,,2013-10-18 16:04:00,
2013-10-18 10:12:00,32.0,17.0,-100.00,North,4,10.0,21.0,53,0.00,,,0.00,378.000000,,2013-10-18 16:12:00,
2013-10-18 10:53:00,35.0,16.0,-100.00,NNE,19,7.0,17.0,46,0.00,,,0.00,531.000000,,2013-10-18 16:53:00,
2013-10-18 11:03:00,35.0,16.0,-100.00,NNE,19,7.0,17.0,46,0.00,,,0.00,531.000000,,2013-10-18 17:03:00,
2013-10-18 11:12:00,35.0,16.0,-100.00,NNE,19,7.0,17.0,46,0.00,,,0.00,531.000000,,2013-10-18 17:12:00,
2013-10-18 11:22:00,35.0,16.0,-100.00,NNE,19,7.0,17.0,46,0.00,,,0.00,531.000000,,2013-10-18 17:22:00,
2013-10-18 11:52:00,40.0,7.0,-100.00,NE,55,5.0,18.0,25,0.00,,,0.00,652.000000,,2013-10-18 17:52:00,
2013-10-18 12:02:00,40.0,7.0,-100.00,NE,55,5.0,18.0,25,0.00,,,0.00,652.000000,,2013-10-18 18:02:00,
2013-10-18 12:12:00,40.0,7.0,-100.00,NE,55,5.0,18.0,25,0.00,,,0.00,652.000000,,2013-10-18 18:12:00,
2013-10-18 12:21:00,40.0,7.0,-100.00,NE,55,5.0,18.0,25,0.00,,,0.00,652.000000,,2013-10-18 18:21:00,
2013-10-18 14:11:00,42.0,-4.0,-100.00,NE,49,5.0,20.0,14,0.00,,,0.00,757.000000,,2013-10-18 20:11:00,
2013-10-18 14:22:00,42.0,-4.0,-100.00,NE,49,5.0,20.0,14,0.00,,,0.00,757.000000,,2013-10-18 20:22:00,
2013-10-18 14:52:00,42.0,5.0,-100.00,SE,125,7.0,17.0,21,0.00,,,0.00,697.000000,,2013-10-18 20:52:00,
2013-10-18 15:02:00,42.0,5.0,-100.00,SE,125,7.0,17.0,21,0.00,,,0.00,697.000000,,2013-10-18 21:02:00,
2013-10-18 15:12:00,42.0,5.0,-100.00,SE,125,7.0,17.0,21,0.00,,,0.00,697.000000,,2013-10-18 21:12:00,
2013-10-18 15:22:00,42.0,5.0,-100.00,SE,125,7.0,17.0,21,0.00,,,0.00,697.000000,,2013-10-18 21:22:00,
2013-10-18 15:23:00,43.0,4.0,-100.00,NW,311,5.0,23.0,19,0.00,,,0.00,579.000000,,2013-10-18 21:23:00,
2013-10-18 15:54:00,43.0,4.0,-100.00,NW,311,5.0,23.0,19,0.00,,,0.00,579.000000,,2013-10-18 21:54:00,
2013-10-18 16:04:00,43.0,4.0,-100.00,NW,311,5.0,23.0,19,0.00,,,0.00,579.000000,,2013-10-18 22:04:00,
2013-10-18 16:13:00,43.0,4.0,-100.00,NW,311,5.0,23.0,19,0.00,,,0.00,579.000000,,2013-10-18 22:13:00,
2013-10-18 16:23:00,41.0,2.0,-100.00,NNW,328,6.0,13.0,19,0.00,,,0.00,402.000000,,2013-10-18 22:23:00,
2013-10-18 16:54:00,41.0,2.0,-100.00,NNW,328,6.0,13.0,19,0.00,,,0.00,402.000000,,2013-10-18 22:54:00,
2013-10-18 17:03:00,41.0,2.0,-100.00,NNW,328,6.0,13.0,19,0.00,,,0.00,402.000000,,2013-10-18 23:03:00,
2013-10-18 17:12:00,41.0,2.0,-100.00,NNW,328,6.0,13.0,19,0.00,,,0.00,402.000000,,2013-10-18 23:12:00,
2013-10-18 17:53:00,36.0,2.0,-100.00,SW,233,8.0,16.0,23,0.00,,,0.00,139.000000,,2013-10-18 23:53:00,
2013-10-18 18:02:00,36.0,2.0,-100.00,SW,233,8.0,16.0,23,0.00,,,0.00,139.000000,,2013-10-19 00:02:00,
2013-10-18 18:11:00,36.0,2.0,-100.00,SW,233,8.0,16.0,23,0.00,,,0.00,139.000000,,2013-10-19 00:11:00,
2013-10-18 18:22:00,36.0,2.0,-100.00,SW,233,8.0,16.0,23,0.00,,,0.00,139.000000,,2013-10-19 00:22:00,
2013-10-18 18:52:00,31.0,5.0,-100.00,East,87,4.0,17.0,32,0.00,,,0.00,11.000000,,2013-10-19 00:52:00,
2013-10-18 19:02:00,31.0,5.0,-100.00,East,87,4.0,17.0,32,0.00,,,0.00,11.000000,,2013-10-19 01:02:00,
2013-10-18 19:12:00,31.0,5.0,-100.00,East,87,4.0,17.0,32,0.00,,,0.00,11.000000,,2013-10-19 01:12:00,
2013-10-18 19:21:00,31.0,5.0,-100.00,East,87,4.0,17.0,32,0.00,,,0.00,11.000000,,2013-10-19 01:21:00,
2013-10-18 20:22:00,27.0,5.0,-100.00,WNW,297,3.0,6.0,38,0.00,,,0.00,1.000000,,2013-10-19 02:22:00,
2013-10-18 20:23:00,27.0,4.0,-100.00,NNW,343,3.0,5.0,37,0.00,,,0.00,0.000000,,2013-10-19 02:23:00,
2013-10-18 20:52:00,27.0,4.0,-100.00,NNW,343,3.0,5.0,37,0.00,,,0.00,0.000000,,2013-10-19 02:52:00,
2013-10-18 21:03:00,27.0,4.0,-100.00,NNW,343,3.0,5.0,37,0.00,,,0.00,0.000000,,2013-10-19 03:03:00,
2013-10-18 21:12:00,27.0,4.0,-100.00,NNW,343,3.0,5.0,37,0.00,,,0.00,0.000000,,2013-10-19 03:12:00,
2013-10-18 21:23:00,29.0,3.0,-100.00,West,276,5.0,10.0,32,0.00,,,0.00,0.000000,,2013-10-19 03:23:00,
2013-10-18 21:55:00,29.0,3.0,-100.00,West,276,5.0,10.0,32,0.00,,,0.00,0.000000,,2013-10-19 03:55:00,
2013-10-18 22:05:00,29.0,3.0,-100.00,West,276,5.0,10.0,32,0.00,,,0.00,0.000000,,2013-10-19 04:05:00,
2013-10-18 22:13:00,29.0,3.0,-100.00,West,276,5.0,10.0,32,0.00,,,0.00,0.000000,,2013-10-19 04:13:00,
2013-10-18 22:54:00,32.0,1.0,-100.00,WSW,256,14.0,25.0,26,0.00,,,0.00,0.000000,,2013-10-19 04:54:00,
2013-10-18 23:04:00,32.0,1.0,-100.00,WSW,256,14.0,25.0,26,0.00,,,0.00,0.000000,,2013-10-19 05:04:00,
2013-10-18 23:13:00,32.0,1.0,-100.00,WSW,256,14.0,25.0,26,0.00,,,0.00,0.000000,,2013-10-19 05:13:00,
2013-10-18 23:22:00,32.0,1.0,-100.00,WSW,256,14.0,25.0,26,0.00,,,0.00,0.000000,,2013-10-19 05:22:00,
2013-10-18 23:52:00,32.0,3.0,-100.00,West,281,11.0,28.0,28,0.00,,,0.00,0.000000,,2013-10-19 05:52:00,